sat.trackr.live / text

‹ back to catalog

STARLINK-1524

NORAD 46047 · 2020-055W

PAYLOAD ACTIVE UNKNOWN

§ Identity

Operator
Country
US
Launch date
2020-08-07
Launch site
AFETR
Launch vehicle
Mass (kg)
RCS (m²)

Purposes: comms

External: N2YO · Heavens-Above · Gunter

§ Orbital elements

Epoch: 2026-09-20T02:01:01.995168Z

Period
94.01 min
Inclination
53.1633°
Eccentricity
0.0000725
Mean motion
15.31696781 rev/d
Perigee alt
470.3 km
Apogee alt
471.2 km
Semi-major
6,848.9 km
B*
1.8653e-4
RAAN
289.3421°
Arg perigee
52.5748°
Mean anomaly
307.5319°
Rev number
33,885

§ Raw data

STARLINK-15241 46047U 20055W   26263.08405087  .00005427  00000+0  18653-3 0  99972 46047  53.1633 289.3421 0000725  52.5748 307.5319 15.31696781338850

JSON: /api/v1/satellites/46047 · /tle

For live sub-satellite position, see the globe view (requires WebGL).

§ Visibility from observer

Set your observer location to see the next 7 days of passes ≥ 10°. The values pass through the URL so the page stays shareable.

No JS? Fill the form by hand. The geolocation button needs JavaScript.